Tracking 31027 objects as of 19-Jul-2025
HD Live streaming from Space Station
objects crossing your sky now

STARLINK-3881

Track STARLINK-3881 now!
10-day predictions
STARLINK-3881 is classified as:


NORAD ID: 52472
Int'l Code: 2022-049X
Perigee: 546.0 km
Apogee: 547.8 km
Inclination: 53.2 °
Period: 95.4 minutes
Semi major axis: 6917 km
RCS: Unknown
Launch date: May 6, 2022
Source: United States (US)
Launch site: AIR FORCE EASTERN TEST RANGE (AFETR)
Your satellite tracking list
COSMOS 1275 DEB
Track 1 satellite(s)




NASA's NSSDC Master Catalog

Two Line Element Set (TLE):
1 52472U 22049X   25199.81179408 -.00000360  00000-0 -45124-5 0  9993
2 52472  53.2179  29.0400 0001346  91.5376 268.5771 15.08838934177100
Source of the keplerian elements: AFSPC